Home > Weather > Samsun > Past weeks

Flag for Turkey Weather for the Past 2 Weeks in Samsun, Turkey

Now
34 °F

Passing clouds.


Feels Like: 31 °F
Forecast: 37 / 58 °F
Wind: 3 mph from Southeast

Location: Samsun / Carsamba

Current Time: Feb 9, 2016 at 8:59:58 AM

Latest Report: Feb 9, 2016 at 7:50 AM


Visibility: N/A

Pressure: 30.30 "Hg

Humidity: 93%

Dew point: 32 °F

Location of SamsunLocation

Historic Weather in Samsun — Graph

°F

Samsun Temperature Yesterday

Maximum temperature yesterday: 46 °F (at 9:50 AM)
Minimum temperature yesterday: 30 °F (at 10:50 PM)
Average temperature yesterday: 39 °F

High & Low Weather Summary for the Past Weeks

 TemperatureHumidityPressure
High72 °F (Feb 4, 1:50 PM)100% (Jan 25, 6:50 AM)30.48 "Hg (Jan 25, 6:50 AM)
Low25 °F (Jan 27, 5:50 AM)19% (Feb 4, 3:50 PM)29.74 "Hg (Feb 5, 2:50 PM)
Average44 °F66%30.23 "Hg
* Reported Jan 25 6:50 AM — Feb 9 6:50 AM, Samsun, Weather by CustomWeather, © 2016

Note: Actual official high and low records may vary slightly from our data, if they occured in-between our weather recording intervals... More about our weather records

Advertising

Samsun Weather History for the Previous 24 Hours

 ConditionsComfort  
Time TempWeatherWind HumidityBarometerVisibility
6:50 AM
Tue, Feb 9
28 °FSunny.3 mph100%30.30 "Hg10 mi
5:50 AM28 °FClear.3 mph93%30.27 "Hg10 mi
4:50 AM28 °FClear.No wind93%30.27 "Hg10 mi
3:50 AM30 °FClear.2 mph93%30.27 "Hg10 mi
2:50 AM32 °FClear.6 mph93%30.30 "Hg10 mi
1:50 AM30 °FClear.2 mph100%30.30 "Hg10 mi
12:50 AM30 °FClear.3 mph93%30.33 "Hg10 mi
11:50 PM
Mon, Feb 8
30 °FClear.5 mph93%30.33 "Hg10 mi
10:50 PM30 °FClear.2 mph93%30.33 "Hg10 mi
9:50 PM32 °FClear.5 mph93%30.36 "Hg10 mi
8:50 PM36 °FClear.2 mph81%30.36 "Hg10 mi
7:50 PM37 °FClear.2 mph75%30.36 "Hg10 mi
6:50 PM36 °FClear.No wind81%30.36 "Hg10 mi
5:50 PM41 °FClear.3 mph66%30.36 "Hg10 mi
4:50 PM43 °FSunny.6 mph57%30.33 "Hg10 mi
3:50 PM45 °FPassing clouds.8 mph53%30.33 "HgN/A
2:50 PM46 °FPassing clouds.9 mph50%30.33 "HgN/A
1:50 PM46 °FPassing clouds.8 mph50%30.33 "HgN/A
12:50 PM46 °FPassing clouds.5 mph46%30.33 "HgN/A
11:50 AM46 °FPassing clouds.5 mph46%30.36 "HgN/A
10:50 AM45 °FPassing clouds.7 mph46%30.39 "HgN/A
9:50 AM46 °FScattered clouds.2 mph40%30.39 "HgN/A
8:50 AM41 °FScattered clouds.6 mph66%30.42 "HgN/A
Weather by CustomWeather, © 2016

See weather overviewHow to use our weather pages